Overview Statistics Trail Chart Weather Telemetry Raw packets
 

This is the latest recevied weather packets stored in our database for station/object N7ZAP. If no packets are shown the sender has not sent any weather packets the latest 10 day(s).

<< 19 20 21 22 23 24 25 >>
Time Temp. Humidity Pressure Rain* Wind** Luminosity Snow
1788564068 29.44° C 32% 1018.1 hPa 0 mm - - -
1788563764 29.44° C 32% 1018.2 hPa 0 mm - - -
1788563458 29.44° C 32% 1018.2 hPa 0 mm - - -
1788563157 29.44° C 32% 1018 hPa 0 mm - - -
1788562853 29.44° C 32% 1018.3 hPa 0 mm - - -
1788562550 29.44° C 32% 1018.2 hPa 0 mm - - -
1788562245 29.44° C 32% 1018.2 hPa 0 mm - - -
1788561940 30° C 32% 1018.2 hPa 0 mm - - -
1788561640 30° C 31% 1018.1 hPa 0 mm - - -
1788561339 30° C 31% 1018.5 hPa 0 mm - - -
1788561035 30° C 31% 1018.3 hPa 0 mm - - -
1788560730 30° C 31% 1018.1 hPa 0 mm - - -
1788560426 30.56° C 31% 1018.4 hPa 0 mm - - -
1788560121 30.56° C 32% 1018.4 hPa 0 mm - - -
1788559821 30.56° C 32% 1018.3 hPa 0 mm - - -
1788559520 31.11° C 31% 1018.1 hPa 0 mm - - -
1788559217 31.11° C 31% 1018.1 hPa 0 mm - - -
1788558916 31.11° C 34% 1018.1 hPa 0 mm - - -
1788558612 31.67° C 32% 1018.1 hPa 0 mm - - -
1788558307 32.22° C 31% 1018.4 hPa 0 mm - - -
1788558002 32.78° C 31% 1018.5 hPa 0 mm - - -
1788557701 32.22° C 31% 1018.5 hPa 0 mm - - -
1788557397 32.78° C 31% 1018.7 hPa 0 mm - - -
1788557096 32.22° C 31% 1018.7 hPa 0 mm - - -
1788556791 31.67° C 33% 1018.7 hPa 0 mm - - -

* Rain latest hour (hover to see other rain measurements)
** Current wind speed in m/s (hover to see current wind gust speed)